Location: Boiro
(42.6475°N, 8.8834°W)
Time: 05:56:14
(UTC+01:00)

Envisat - Pass Details

Date: 27 October 2021
Orbit: 764 x 766 km, 98.2° (Epoch: 04 December)

Event Time Altitude Azimuth Distance (km) Brightness Sun altitude
Rises 06:08:36 0° 36° (NE) 3,239 6.9 -32.6°
Reaches altitude 10° 06:13:13 10° 75° (ENE) 2,304 6.3 -31.7°
Maximum altitude 06:14:15 11° 87° (E) 2,263 6.3 -31.5°
Drops below altitude 10° 06:15:17 10° 99° (E) 2,301 6.2 -31.4°
Sets 06:19:51 0° 138° (SE) 3,218 6.6 -30.5°
